RH
70 78 89 100 95 84 78 72 78 94 94 89 82 78 77 78 75 76 78 80 81 85 87 86 88 83 82
70 86 94 94 80 72 70 63 64 80 78 77 75 74 74 73 69 73 78 82 84 84 83 86 89 88 84
58 74 75 74 72 63 54 45 41 38 68 70 68 73 74 77 78 81 79 84 84 84 85 86 86 88 89
51 85 78 69 63 48 38 34 24 20 57 66 72 76 77 78 80 83 86 84 85 87 87 89 91 90 90
55 56 65 65 56 46 38 33 25 21 24 56 67 72 76 78 80 84 79 80 81 84 88 90 91 91 90
66 55 55 69 58 44 37 36 36 27 24 26 44 56 58 64 66 63 62 50 76 82 84 79 84 87 87
87 69 53 52 53 48 41 36 30 25 26 28 32 40 43 50 50 44 46 62 69 72 78 81 82 80 81
46 52 52 49 49 49 46 39 36 39 30 34 37 44 50 49 45 44 62 71 73 75 77 77 77 77 77
91 58 49 45 47 46 44 40 47 50 52 56 61 55 56 57 52 50 63 72 74 74 76 76 78 78 77
96 92 98 94 95 62 50 58 76 76 73 74 74 66 66 65 61 57 56 62 75 76 77 78 78 76 74
87 95 97 99 96 100 96 90 76 79 78 65 87 88 93 89 54 52 50 48 47 48 54 68 76 78 83
98 94 89 94 95 97 98 99 97 97 94 97 96 94 94 90 79 69 66 63 61 61 59 58 61 65 71
98 96 94 84 85 96 96 96 95 95 97 97 96 96 96 94 91 84 83 79 70 69 67 66 63 59 54
88 90 98 96 94 91 94 96 96 96 96 95 96 96 96 98 99 97 96 92 74 78 76 71 66 62 60
95 96 93 96 98 98 98 97 96 96 93 92 96 97 97 97 100 98 98 98 88 82 81 83 79 73 70
70 82 95 96 95 90 92 95 95 95 94 94 95 95 95 93 98 97 96 96 95 89 88 91 90 82 78
44 56 73 80 73 94 95 96 98 93 92 90 95 96 94 92 75 72 87 96 97 100 98 100 100 96 93
Wind_Speed
13 12 34 32 30 30 29 28 26 22 20 18 17 16 16 14 13 11 10 9 8 8 8 7 7 7 7
13 18 22 32 32 30 29 27 26 20 19 19 18 17 15 14 12 11 10 10 9 8 7 7 7 7 9
10 16 17 31 30 26 27 26 25 22 18 18 17 16 15 14 13 13 13 11 10 9 8 8 7 8 8
11 14 17 23 27 29 25 25 24 23 21 19 18 17 15 15 14 12 12 11 10 9 8 9 10 9 8
14 13 16 20 27 26 22 25 23 24 24 23 22 20 18 15 13 12 12 10 10 11 10 10 11 10 10
9 12 18 24 26 27 23 16 8 25 24 24 24 24 21 19 17 15 14 12 11 11 11 10 11 12 11
13 14 14 21 26 27 27 22 18 12 27 21 21 21 20 18 17 16 15 13 13 13 13 13 13 14 13
4 10 13 17 23 22 21 19 14 11 24 12 17 19 19 17 17 17 16 15 15 15 15 16 16 17 19
2 3 4 8 17 20 19 21 9 9 17 6 7 12 16 17 18 18 18 18 17 18 19 19 20 21 21
13 9 8 9 8 13 16 17 10 6 15 13 13 12 5 12 19 21 23 22 20 20 21 22 21 22 24
14 14 15 12 16 15 16 18 17 14 8 19 12 15 10 4 6 7 8 10 12 12 13 15 17 20 23
18 18 16 17 20 17 16 13 20 22 18 18 12 19 17 10 11 14 17 19 21 23 23 21 20 20 21
13 16 21 20 17 18 20 18 17 18 14 14 15 15 17 14 9 14 16 20 22 22 21 19 21 22 24
15 12 15 17 18 18 17 16 16 17 18 18 19 20 20 20 20 18 17 15 13 16 20 23 24 25 26
8 6 8 3 7 14 16 17 16 12 17 18 18 20 22 22 20 20 21 22 26 27 27 28 28 29 29
14 14 11 7 8 11 11 9 8 8 9 9 10 11 12 13 15 18 19 21 22 23 23 25 25 26 28
12 13 12 14 16 16 15 15 14 14 14 15 13 12 9 6 15 15 16 15 16 21 23 23 24 26 27
Wind_Direction
199 208 198 201 194 195 195 194 182 172 177 184 188 183 180 184 181 183 181 189 183 183 186 182 193 206 234
190 200 201 202 204 193 194 195 192 181 187 191 192 192 188 189 191 190 190 205 201 198 210 199 191 213 225
186 197 186 197 199 196 196 194 194 193 195 199 197 196 193 194 199 201 196 212 211 216 226 229 223 219 225
182 182 182 186 196 191 193 200 199 200 196 202 199 200 199 203 207 209 210 207 220 225 238 249 248 239 229
180 169 177 173 187 192 197 203 206 208 204 200 198 201 202 208 213 213 220 230 238 246 241 246 253 256 255
193 193 190 191 187 190 191 191 203 210 211 211 208 207 208 210 215 224 234 242 240 251 246 245 249 248 252
221 214 209 199 191 187 194 199 205 203 206 215 212 213 213 220 228 235 247 243 243 240 240 248 246 256 262
215 213 224 216 207 201 198 196 197 196 200 196 212 222 232 232 235 241 238 240 244 246 250 253 258 269 267
46 213 197 189 212 206 199 193 189 195 193 180 201 218 233 242 243 243 243 247 250 252 254 256 262 270 264
269 253 230 219 209 214 206 196 198 203 228 220 222 210 240 251 249 248 249 247 250 253 256 260 263 261 261
267 266 250 236 229 225 244 238 219 225 215 209 225 219 220 226 213 218 249 262 247 245 264 262 259 257 263
255 253 247 250 254 245 227 230 242 243 244 222 218 211 214 230 236 251 252 258 262 266 271 264 262 258 254
271 253 257 262 257 257 260 261 251 238 230 221 234 243 233 229 241 252 259 262 265 268 263 260 262 260 263
278 296 264 255 251 253 252 254 249 246 244 240 245 247 246 249 250 253 251 240 262 260 260 265 266 264 268
292 295 265 274 232 232 236 236 229 224 240 246 246 251 255 254 250 250 246 247 255 263 267 265 268 270 270
269 266 268 257 248 256 257 261 261 258 250 242 258 282 282 269 248 249 247 251 255 261 264 261 266 271 275
279 267 256 247 256 257 250 250 249 248 246 252 252 244 247 253 260 254 261 266 268 262 262 259 261 266 270